Voltar ao catálogo

COSMOS 839 DEB

AtivoUNKNOWN
NORAD 10440·DEBRIS·🇷🇺 Russia

Lançado Jul 8, 1976 de Plesetsk Cosmodrome

Loading…

Próximas Passagens (próximas 24 horas)

TLE

AtualizadoSource: Space-Track

Época: Sep 13, 2026, 02:05 UTC

1 10440U 76067R   26256.08682259  .00000378  00000-0  13352-2 0  9990
2 10440  65.6505 136.5244 0710547  45.3475  96.2344 12.40600175268993

Acompanhe COSMOS 839 DEB em tempo real com AllMySat

Download on the App Store